Regional Weather Roundup
Issued by NWS Upton, NY

Current Version | Previous Version | Text Only | Print | Product List | Glossary Off
Versions: 1 2 3 4 5 6 7 8 9 10 11 12 13 14 15 16 17 18 19 20 21 22 23 24 25 26 27 28 29 30 31 32 33 34 35 36 37 38 39 40 41 42 43 44 45 46 47 48 49 50
000 ASUS41 KOKX 220105 RWROKX REGIONAL WEATHER ROUNDUP NATIONAL WEATHER SERVICE NEW YORK NY 900 PM EDT THU AUG 21 2014 NOTE: "FAIR" INDICATES FEW OR NO CLOUDS BELOW 12,000 FEET WITH NO SIGNIFICANT WEATHER AND/OR OBSTRUCTIONS TO VISIBILITY. NYZ071-072-176-178-NJZ106-104-220200- NEW YORK CITY METRO AREA CITY SKY/WX TMP DP RH WIND PRES REMARKS CENTRAL PARK CLOUDY 73 62 68 S7 30.05F LAGUARDIA APRT CLOUDY 73 61 65 SE9 30.03S KENNEDY INTL MOCLDY 73 65 75 SE10 30.04F NEWARK/LIBERTY CLOUDY 73 62 68 SE9G16 30.02F BRNX BOT. GARD N/A 72 61 68 CALM 30.04R TETERBORO CLOUDY 74 61 63 SE7 30.01S $$ NYZ177-179-078>081-220200- LONG ISLAND NEW YORK CITY SKY/WX TMP DP RH WIND PRES REMARKS FARMINGDALE MOCLDY 71 65 81 SE10 30.04F ISLIP CLOUDY 71 64 78 SE9 30.03S SHIRLEY CLOUDY 70 63 78 SE6 30.06S WESTHAMPTON CLOUDY 70 62 76 SE7 30.07S MONTAUK POINT N/A 69 63 81 CALM 30.08R $$ NYZ052-065-067-220200- HUDSON VALLEY CITY SKY/WX TMP DP RH WIND PRES REMARKS WHITE PLAINS CLOUDY 70 62 76 SE7 30.04S NEWBURGH NOT AVBL MONTGOMERY CLOUDY 69 63 81 CALM 30.02R POUGHKEEPSIE LGT RAIN 70 63 78 SE5 30.01R ALBANY CLOUDY 72 65 78 SE6 30.00S $$ NJZ001-105-106-008-010-013-015-019>022-104-220200- NEW JERSEY CITY SKY/WX TMP DP RH WIND PRES REMARKS NEWARK/LIBERTY CLOUDY 73 62 68 SE9G16 30.02F TETERBORO CLOUDY 74 61 63 SE7 30.01S CALDWELL CLOUDY 72 57 59 S3 30.03S MORRISTOWN PTCLDY N/A N/A N/A CALM 30.03S SOMERVILLE CLOUDY 73 61 65 CALM 30.00R THUNDER LINDEN CLOUDY 78 64 61 SE5 30.04S SUSSEX LGT RAIN 69 65 86 SW6 N/A ANDOVER N/A 66 65 96 CALM 30.04R TRENTON CLOUDY 73 61 65 S10 30.01R MILLVILLE CLOUDY 73 68 84 CALM 30.01S ATLANTIC CITY CLOUDY 73 67 81 S7 30.02R WRIGHTSTOWN CLOUDY 71 64 80 S3 30.00R TOMS RIVER CLOUDY 70 63 78 E3 30.02S BELMAR CLOUDY 72 61 68 SE6 30.03S $$ PAZ047>061-062-071-220200- EASTERN PENNSYLVANIA CITY SKY/WX TMP DP RH WIND PRES REMARKS PHILADELPHIA CLOUDY 76 67 73 SE12 30.01R ALLENTOWN CLOUDY 78 69 73 S7 29.99S SCRANTON CLOUDY 76 64 66 CALM 30.00R $$ CTZ002-004>006-009-010-012-RIZ004-006-007-MAZ004-011-015-220200- SOUTHERN NEW ENGLAND IN CT CITY SKY/WX TMP DP RH WIND PRES REMARKS BRADLEY INTL RAIN 71 65 81 S9 30.04R HARTFORD CLOUDY 71 63 75 S6 30.05R DANBURY LGT RAIN 69 64 84 VRB5 30.06S WTRBRY/OXFORD NOT AVBL BRIDGEPORT CLOUDY 71 65 81 S8 30.05R MERIDEN CLOUDY 71 64 78 SE7 30.05S NEW HAVEN CLOUDY 73 63 70 SE9 30.06R CHESTER CLOUDY 68 63 83 SE3 30.08S GROTON MOCLDY 67 65 93 SE3 30.06R WILLIMANTIC CLOUDY 70 62 76 S6 30.07R IN RI CITY SKY/WX TMP DP RH WIND PRES REMARKS PROVIDENCE CLOUDY 69 62 78 S6 30.08R BLOCK ISLAND PTCLDY 66 61 82 CALM 30.07R WESTERLY CLOUDY 69 63 81 CALM 30.08R IN MA CITY SKY/WX TMP DP RH WIND PRES REMARKS BOSTON MOCLDY 67 64 90 NE7 30.08S WORCESTER CLOUDY 64 59 83 NE6 30.10R WESTFIELD CLOUDY 69 65 86 N5 30.05S PROVINCETOWN PTCLDY 63 61 94 MISG 30.09S NANTUCKET CLEAR 63 59 87 NE7 30.06F $$ ANZ330-335-338-340-345-350-353-355-220200- COASTAL MARINE OBSERVATIONS STATION/POSITION TIME SKY/WX TEMP WIND PRES VSBY WAVE AIR SEA DIR/SP/G HT/PER (UTC) (F) (DEG/KT/KT) (MB) (MI) (FT/S) NY HARB ENTRANCE NOT AVBL 4S FIRE IS NOT AVBL 23SW MTP 0100 69 70 1017.6 3/ 7 HUDSON CANYON 0100 72 74 100/ 10/ 12 1017.0 4/ 8 EXECUTION ROCKS 0100 73 73 150/ 6/ 8 N/A WESTERN LI SOUND 0100 72 130/ 8/ 10 N/A 1 CENTRAL LI SOUND 0000 71 73 160/ 12/ 14 N/A 1/ 2 EASTERN LI SOUND 0000 69 69 130/ 6/ 6 N/A ROBBINS REEF 0100 72 140/ 16/ 18 N/A $$ >>>>>>>>>>>>>>>>>>>>>>>>>>>> KEY <<<<<<<<<<<<<<<<<<<<<<<<<<< > < > SKY/WX - SKY CONDITION/PRESENT WEATHER < > TMP - TEMPERATURE IN FAHRENHEIT < > DP - DEWPOINT IN FAHRENHEIT < > RH - RELATIVE HUMIDITY IN PERCENT < > WIND - DIRECTION AND SPEED IN MPH < > PRES - MEAN SEA LEVEL PRESSURE IN INCHES OF HG < > WCI - WIND CHILL INDEX < > VSB - VISIBILITY IN MILES < > HX - HEAT INDEX < > TC - TEMPERATURE IN CELSIUS < > VRB - VARIABLE WIND DIRECTION < > < >>>>>>>>>>>>>>>>>>>>>>>>>>>> KEY <<<<<<<<<<<<<<<<<<<<<<<<<<<

USA.gov is the U.S. government's official web portal to all federal, state and local government web resources and services.